Wind_Speed
11 12 13 14 16 16 16 17 17 17 18 18 19 20 22 24 24 23 22 22 23 24 25 24 24 24 25 25 25 24 24 23 23 23 23 23 23 23 22 21 21 21 21 21
10 10 11 12 13 14 14 15 16 17 17 17 19 21 21 23 24 23 22 23 24 24 23 23 23 23 24 24 23 22 22 21 20 20 20 20 20 20 19 19 19 19 20 20
10 9 10 10 10 11 13 13 14 16 16 18 20 21 20 22 22 22 23 24 24 23 23 23 22 22 22 21 21 20 19 18 18 18 18 18 18 18 18 19 19 19 18 18
9 9 10 9 9 10 11 13 13 15 17 18 19 19 20 22 23 23 23 23 22 22 21 20 19 19 19 18 18 17 16 16 17 17 16 17 16 17 17 17 16 15 15 15
8 9 8 8 8 10 10 11 12 14 16 18 18 19 20 20 21 21 21 20 19 19 18 17 15 15 15 15 15 15 15 14 15 15 15 15 15 16 15 14 13 13 12 11
6 7 7 7 8 8 10 11 12 14 16 17 18 19 19 19 19 20 19 17 16 16 15 13 13 13 13 13 13 12 12 13 13 13 14 14 14 13 13 13 12 11 10 9
4 5 5 6 8 9 11 12 14 15 16 16 17 17 16 17 17 16 15 15 15 14 13 12 11 11 12 12 12 11 11 11 12 12 12 13 12 11 11 10 9 8 7 7
4 5 6 7 8 9 11 12 14 15 15 16 16 15 16 16 16 14 14 14 14 13 12 11 10 9 10 10 10 10 10 10 10 10 10 10 9 9 8 7 6 6 5 5
5 6 7 8 8 9 11 12 13 14 15 15 16 16 16 15 15 13 13 13 12 12 10 9 9 9 10 9 9 9 9 9 9 8 8 8 7 6 6 6 6 6 6 6
6 7 8 8 9 10 12 12 13 13 13 14 14 15 15 14 13 12 11 11 10 10 9 9 9 9 9 8 7 8 8 8 8 7 7 7 7 7 7 7 7 7 7 8
7 8 7 7 9 10 11 12 13 13 12 13 13 13 12 12 11 10 10 9 9 8 8 9 9 9 9 9 9 8 8 8 8 8 8 8 8 9 8 9 9 8 9 9
7 7 8 8 8 9 10 10 11 11 12 12 12 11 10 9 9 9 9 9 9 8 9 9 9 9 10 9 9 10 9 9 9 10 10 11 11 11 11 11 10 10 10 10
6 6 7 8 8 8 9 10 10 10 10 10 10 9 9 8 7 8 8 9 9 9 10 10 10 10 10 10 10 10 11 11 11 11 12 12 13 13 13 13 13 12 12 12
6 7 7 8 8 8 8 9 9 8 9 9 9 9 9 8 7 7 8 8 9 10 10 11 11 11 11 11 11 11 11 12 12 12 12 12 13 13 13 14 14 14 14 14
7 7 8 8 8 8 8 8 8 8 9 8 8 8 8 7 7 7 7 8 8 9 10 10 10 10 11 11 11 11 12 12 12 12 12 12 13 13 14 14 15 15 15 16
7 7 7 7 7 7 7 7 6 7 7 7 7 7 7 7 7 7 7 8 8 9 9 9 10 10 10 11 11 11 11 11 12 12 12 13 13 14 14 14 15 16 16 16
7 7 7 7 7 6 6 6 5 5 5 5 6 6 6 6 7 7 7 8 8 8 9 9 9 9 10 10 10 11 11 11 12 12 12 13 13 13 14 14 15 15 15 15
7 7 6 6 6 6 6 5 4 3 3 4 4 5 5 6 6 6 7 7 7 7 7 8 8 8 9 9 10 10 11 11 12 12 12 13 13 13 14 14 14 14 14 14
7 7 6 6 5 5 5 4 3 3 2 2 3 4 4 5 5 6 6 6 7 7 7 7 8 8 8 9 9 10 10 11 11 12 12 12 12 13 13 13 13 13 13 13
6 6 6 6 5 5 5 4 3 3 2 1 1 2 2 3 4 5 5 6 6 6 6 6 7 7 8 8 9 9 9 9 10 10 11 11 11 11 11 11 11 11 11 11
6 6 5 5 5 5 4 3 2 2 1 0 0 0 1 2 2 3 4 4 5 5 5 5 6 6 6 7 7 7 7 8 8 8 9 9 8 8 9 9 9 9 9 9
7 6 6 5 5 5 4 3 2 1 1 1 1 1 1 1 1 1 2 2 3 3 4 4 5 5 5 5 5 5 5 6 6 6 6 6 6 6 6 7 7 7 7 7
7 7 6 6 5 4 4 3 2 2 2 2 3 3 2 2 2 2 1 1 1 1 2 2 3 3 4 4 4 4 3 3 3 4 4 4 4 4 4 4 4 5 5 5
7 6 6 6 5 4 4 4 3 3 4 4 4 4 4 4 4 3 3 2 2 1 0 0 1 2 2 2 2 2 1 1 1 1 1 2 2 2 2 2 2 2 2 2
7 7 7 7 6 6 5 5 5 5 5 5 5 6 5 5 5 4 4 4 3 3 3 2 2 1 1 1 1 1 1 1 1 1 1 1 1 1 1 1 1 2 2 3
9 9 9 8 8 7 7 7 7 7 6 7 7 7 7 7 6 6 6 6 6 5 5 5 5 4 4 4 3 3 3 4 4 4 4 4 4 4 4 4 4 5 5 6
11 11 11 10 10 10 9 9 9 9 9 9 9 9 9 8 8 8 8 8 8 8 8 8 7 7 6 6 7 7 6 6 6 6 6 7 7 7 8 8 8 8 8 9
Wind_Direction
232 233 236 237 242 248 258 264 271 276 283 290 294 298 304 307 308 308 306 306 307 306 306 303 300 298 295 295 295 294 294 294 295 296 296 296 295 295 294 293 291 289 288 286
233 234 238 240 247 252 260 268 273 278 285 294 301 301 301 307 308 306 306 310 310 308 306 303 300 298 297 297 297 295 295 296 297 298 298 299 300 299 298 297 295 293 291 290
227 232 243 249 252 260 265 273 279 281 287 294 301 304 303 308 313 311 310 312 313 312 307 302 300 299 298 297 296 296 297 297 299 301 301 302 303 303 302 300 298 295 294 292
228 240 250 256 257 271 272 277 284 290 293 298 304 306 308 309 311 312 313 314 315 315 313 308 306 303 301 300 297 296 297 297 299 302 304 305 305 305 304 304 303 300 298 298
245 256 254 255 265 279 282 285 291 298 301 303 307 310 311 313 315 315 317 318 319 319 318 314 311 310 308 305 302 300 299 299 300 302 305 307 308 311 311 312 310 307 306 302
266 275 263 270 275 284 291 295 299 305 307 308 309 314 314 315 318 319 321 321 321 323 323 324 322 321 317 315 312 309 306 304 303 305 308 309 311 312 312 314 314 313 312 311
278 293 297 293 290 292 300 303 307 311 314 315 315 316 318 321 322 325 326 326 325 326 326 324 323 326 325 322 318 316 314 312 311 312 314 316 317 316 317 321 324 325 324 324
297 304 317 313 304 306 309 310 315 316 316 318 320 319 320 324 325 325 328 332 332 332 331 329 329 333 335 333 330 327 325 324 325 327 329 330 330 329 332 339 345 349 352 353
299 310 310 314 319 314 314 316 320 322 323 324 324 323 321 323 327 328 333 334 334 339 343 342 341 340 341 339 339 341 342 343 345 347 349 354 358 2 5 11 19 25 32 35
301 306 314 319 320 317 321 325 326 327 329 331 329 328 329 331 334 334 335 338 343 348 351 352 352 350 349 351 353 357 360 3 9 13 15 22 31 35 38 42 45 49 55 57
304 308 314 317 323 324 325 327 329 332 333 334 334 338 342 346 348 351 355 357 2 5 5 9 13 15 17 19 20 20 23 28 30 33 39 46 51 55 57 57 58 64 69 71
305 311 312 316 320 323 328 334 337 338 338 339 340 343 349 353 1 9 16 21 23 25 27 28 29 31 34 36 38 40 43 46 49 52 56 61 65 67 68 67 67 70 72 76
307 311 314 316 322 328 333 340 342 345 347 351 354 358 2 7 15 25 31 36 40 39 36 36 36 38 42 45 47 50 54 57 61 64 66 68 71 72 72 71 72 73 76 80
316 317 319 321 326 331 334 339 343 346 351 358 5 12 18 25 32 36 40 43 45 44 43 43 44 48 53 55 57 58 61 65 67 69 70 71 73 75 75 76 78 79 79 80
326 325 324 324 326 328 331 336 340 344 348 356 7 16 23 30 38 42 43 45 44 45 47 50 51 54 56 58 60 62 64 67 70 72 72 75 77 78 78 79 79 80 82 84
327 328 327 329 330 329 333 338 341 346 354 1 11 19 25 33 40 44 44 44 47 51 54 57 59 60 59 59 62 64 66 69 73 75 77 80 81 81 80 81 82 84 85 84
324 327 328 333 336 338 342 342 341 346 357 8 17 23 26 32 41 44 47 50 54 57 59 61 62 63 63 64 63 63 66 72 78 81 83 85 85 85 84 84 85 84 83 83
318 325 331 335 340 340 340 342 343 346 359 15 19 22 26 35 41 43 46 50 54 57 59 63 64 66 69 69 68 69 72 76 79 82 84 86 85 85 86 86 84 84 83 81
316 323 329 328 331 336 336 337 341 345 350 4 12 18 31 42 44 46 48 53 56 59 62 67 69 70 73 74 73 76 81 83 84 85 86 86 86 85 86 86 84 83 82 80
314 318 325 326 328 331 332 330 328 332 342 357 5 23 47 49 45 43 46 51 54 59 64 68 71 74 77 79 81 84 86 87 89 90 90 89 88 86 85 85 84 82 80 77
310 313 319 321 322 325 329 327 321 320 317 331 311 21 24 27 28 32 39 46 51 59 63 66 72 78 81 82 84 87 90 93 95 95 92 89 88 88 88 86 83 81 77 75
303 304 306 306 309 315 320 317 303 299 288 254 257 271 287 295 320 355 19 31 40 53 62 69 76 79 81 85 88 90 91 95 97 96 93 90 90 91 89 87 84 80 77 77
293 296 299 300 301 306 313 309 292 268 260 262 266 270 272 267 270 282 303 331 356 32 56 71 82 83 85 88 89 88 89 92 94 96 97 96 95 94 92 89 85 83 80 73
283 287 291 293 291 293 299 295 281 271 267 266 266 266 266 263 262 264 266 267 266 272 269 120 113 110 107 99 95 95 98 100 98 97 106 110 106 101 98 93 86 79 66 43
275 277 278 280 280 280 278 274 273 272 271 269 267 263 260 256 253 254 254 253 248 247 246 241 237 237 238 240 241 233 241 254 256 257 246 229 221 228 240 259 286 295 305 318
274 275 275 276 274 273 270 269 271 272 270 269 267 262 256 251 249 250 251 251 249 251 253 255 257 259 261 262 263 263 264 264 260 256 258 262 261 261 264 270 278 285 292 298
271 272 271 270 269 269 270 270 269 268 268 267 265 263 259 256 255 254 254 254 254 255 255 254 254 257 259 263 264 264 263 264 266 266 267 268 270 270 271 273 277 281 286 290
Height
5805 5806 5807 5808 5809 5809 5810 5810 5810 5810 5809 5808 5806 5803 5801 5798 5795 5793 5790 5787 5784 5780 5777 5773 5770 5767 5764 5761 5759 5756 5754 5751 5749 5747 5744 5742 5740 5738 5736 5734 5732 5731 5729 5728
5803 5804 5804 5805 5805 5806 5806 5807 5806 5806 5805 5803 5801 5798 5796 5793 5790 5787 5784 5781 5777 5773 5770 5766 5763 5760 5758 5755 5752 5749 5747 5745 5743 5741 5739 5736 5734 5732 5730 5729 5727 5725 5723 5722
5801 5802 5802 5803 5803 5803 5803 5803 5803 5802 5801 5798 5796 5793 5790 5788 5784 5781 5778 5775 5771 5767 5763 5760 5757 5754 5751 5748 5746 5744 5742 5740 5738 5736 5734 5732 5730 5728 5726 5724 5722 5720 5718 5717
5799 5801 5801 5803 5801 5800 5800 5800 5799 5798 5796 5794 5792 5789 5786 5783 5779 5776 5773 5769 5765 5761 5757 5754 5751 5748 5746 5743 5741 5739 5738 5736 5734 5732 5730 5728 5726 5724 5722 5719 5717 5715 5714 5712
5798 5798 5798 5799 5799 5798 5797 5796 5796 5794 5792 5790 5787 5784 5781 5778 5774 5771 5767 5764 5760 5756 5753 5749 5747 5744 5742 5739 5737 5735 5734 5732 5730 5728 5726 5724 5722 5720 5718 5716 5714 5712 5710 5709
5797 5796 5796 5798 5797 5796 5796 5794 5792 5790 5788 5785 5782 5780 5777 5773 5769 5766 5762 5759 5756 5752 5749 5746 5744 5741 5739 5736 5734 5732 5730 5729 5727 5725 5723 5721 5719 5717 5715 5713 5711 5709 5708 5707
5795 5795 5795 5795 5794 5794 5794 5793 5789 5787 5784 5782 5779 5776 5773 5769 5765 5762 5759 5755 5752 5749 5746 5744 5741 5739 5736 5734 5732 5730 5728 5726 5724 5722 5720 5718 5716 5715 5713 5711 5709 5708 5706 5705
5794 5794 5795 5793 5791 5791 5790 5788 5786 5783 5780 5778 5775 5771 5769 5765 5762 5759 5756 5753 5750 5747 5744 5742 5739 5737 5735 5732 5730 5728 5726 5724 5722 5720 5718 5716 5715 5713 5711 5710 5708 5707 5706 5705
5793 5794 5792 5790 5789 5788 5786 5784 5782 5780 5777 5774 5772 5769 5765 5762 5759 5756 5753 5751 5748 5745 5742 5740 5738 5736 5733 5731 5729 5727 5725 5723 5721 5719 5718 5716 5714 5713 5711 5710 5708 5707 5706 5705
5790 5789 5789 5788 5787 5785 5783 5781 5779 5776 5774 5771 5769 5765 5762 5759 5756 5753 5751 5749 5746 5744 5742 5739 5737 5735 5733 5731 5729 5727 5725 5723 5721 5720 5718 5716 5715 5713 5712 5711 5710 5709 5708 5707
5787 5787 5786 5785 5784 5783 5781 5778 5776 5773 5771 5768 5766 5763 5760 5757 5754 5752 5750 5747 5745 5743 5741 5739 5737 5735 5733 5731 5729 5727 5726 5724 5722 5720 5719 5717 5716 5715 5714 5713 5712 5711 5710 5709
5785 5785 5784 5783 5782 5780 5778 5776 5774 5771 5769 5766 5763 5761 5758 5756 5754 5752 5749 5747 5745 5743 5741 5740 5738 5736 5734 5733 5731 5729 5727 5725 5724 5722 5721 5719 5718 5717 5716 5715 5714 5713 5712 5712
5783 5782 5782 5780 5779 5778 5776 5774 5772 5770 5768 5765 5762 5760 5757 5755 5753 5752 5750 5748 5746 5744 5743 5741 5739 5738 5736 5734 5733 5731 5729 5728 5726 5725 5724 5722 5721 5720 5719 5718 5717 5716 5715 5715
5780 5780 5779 5778 5777 5775 5774 5772 5770 5769 5766 5764 5762 5759 5757 5756 5754 5753 5751 5749 5748 5746 5744 5743 5741 5739 5738 5737 5735 5734 5732 5731 5729 5728 5727 5726 5725 5724 5723 5722 5721 5720 5719 5718
5779 5778 5777 5776 5775 5773 5772 5770 5769 5767 5766 5763 5762 5760 5758 5757 5755 5754 5752 5751 5749 5748 5746 5745 5743 5742 5741 5739 5738 5736 5735 5734 5732 5731 5730 5729 5729 5728 5727 5726 5725 5724 5724 5723
5777 5776 5775 5774 5773 5772 5770 5769 5768 5767 5765 5764 5762 5761 5759 5757 5756 5755 5753 5752 5751 5749 5748 5747 5746 5744 5743 5742 5740 5739 5738 5736 5735 5734 5734 5733 5732 5732 5731 5730 5729 5729 5728 5728
5776 5775 5774 5773 5772 5771 5769 5768 5767 5766 5765 5764 5763 5761 5760 5758 5757 5756 5754 5753 5752 5751 5750 5749 5748 5747 5746 5745 5743 5742 5741 5740 5739 5738 5737 5737 5736 5735 5735 5734 5734 5733 5733 5732
5775 5774 5773 5772 5771 5769 5768 5767 5766 5765 5765 5764 5763 5762 5761 5759 5758 5757 5756 5755 5754 5753 5752 5751 5750 5749 5748 5747 5746 5745 5744 5743 5742 5742 5741 5741 5740 5739 5739 5738 5738 5737 5737 5736
5773 5772 5771 5770 5769 5768 5767 5766 5766 5765 5764 5764 5763 5762 5761 5760 5759 5758 5757 5756 5755 5754 5754 5753 5752 5751 5750 5749 5749 5748 5747 5746 5746 5745 5745 5744 5744 5743 5743 5742 5742 5741 5741 5740
5772 5771 5770 5769 5768 5767 5766 5765 5765 5764 5764 5763 5763 5763 5762 5761 5761 5760 5759 5758 5757 5756 5755 5754 5754 5753 5752 5752 5751 5751 5750 5750 5749 5748 5748 5748 5747 5747 5746 5746 5745 5745 5744 5743
5770 5769 5768 5767 5767 5766 5765 5764 5764 5764 5763 5763 5763 5763 5762 5762 5761 5760 5760 5759 5758 5757 5757 5756 5755 5755 5754 5754 5754 5753 5753 5752 5752 5751 5751 5750 5750 5750 5749 5749 5748 5747 5747 5746
5767 5767 5766 5765 5765 5764 5764 5763 5763 5763 5763 5763 5763 5762 5762 5762 5761 5761 5760 5760 5759 5758 5758 5757 5757 5756 5756 5756 5755 5755 5755 5754 5754 5753 5753 5752 5752 5752 5751 5751 5750 5750 5749 5748
5765 5765 5764 5763 5763 5762 5762 5762 5762 5762 5762 5762 5762 5761 5761 5761 5761 5760 5760 5760 5759 5759 5758 5758 5758 5757 5757 5757 5756 5756 5756 5756 5755 5755 5754 5754 5753 5753 5752 5752 5751 5751 5750 5749
5763 5762 5762 5762 5761 5761 5761 5761 5761 5761 5761 5761 5760 5760 5760 5760 5760 5760 5759 5759 5759 5759 5758 5758 5758 5758 5757 5757 5757 5756 5756 5756 5756 5755 5755 5754 5754 5754 5753 5752 5752 5751 5751 5750
5761 5760 5760 5760 5760 5759 5759 5759 5759 5759 5759 5759 5759 5758 5758 5758 5758 5758 5758 5758 5758 5758 5758 5758 5758 5757 5757 5757 5757 5756 5756 5756 5755 5755 5755 5754 5754 5753 5753 5752 5752 5751 5750 5749
5757 5757 5757 5757 5757 5757 5757 5757 5757 5757 5757 5757 5757 5756 5756 5756 5756 5756 5756 5756 5756 5756 5756 5756 5756 5756 5756 5756 5756 5755 5755 5755 5754 5754 5753 5753 5753 5752 5752 5751 5751 5750 5749 5748
5754 5754 5754 5754 5754 5754 5754 5754 5754 5754 5754 5754 5754 5754 5754 5754 5754 5754 5754 5754 5754 5754 5754 5754 5754 5754 5754 5754 5754 5754 5753 5753 5753 5752 5752 5751 5751 5750 5750 5749 5748 5748 5747 5746